Regional Weather Roundup
Issued by NWS Kansas City/Pleasant Hill, MO

Home | Current Version | Previous Version | Text Only | Print | Product List | Glossary On
Versions: 1 2 3 4 5 6 7 8 9 10 11 12 13 14 15 16 17 18 19 20 21 22 23 24 25 26 27 28 29 30 31 32 33 34 35 36 37 38 39 40 41 42 43 44 45 46 47 48 49 50
000
ASUS43 KEAX 300104
RWREAX

WEATHER ROUNDUP FOR EASTERN KANSAS AND NORTHWEST MISSOURI
NATIONAL WEATHER SERVICE KANSAS CITY/PLEASANT HILL MO
800 PM CDT MON JUN 29 2015

KSZ040-057-103>105-MOZ028-029-037-043-300200-
...KANSAS CITY METROPOLITAN AREA...

CITY           SKY/WX    TMP DP  RH WIND       PRES   REMARKS
K.C. INTL      CLOUDY    81  66  60 CALM      29.90S
K.C. DOWNTOWN  CLEAR     83  64  52 NW5       29.88S
LEES SUMMIT    CLEAR     81  63  54 NW3       29.91R
OLATHE - IXD   CLEAR     81  64  56 NW5       29.92S
OLATHE - OJC   CLEAR     81  62  52 NW6       29.90S
LAWRENCE       CLEAR     80  66  62 NW5       29.90S

$$

MOZ001>008-011>017-020>025-030>033-038>040-044>046-053-054-300200-
...NORTHERN AND CENTRAL MISSOURI...

CITY           SKY/WX    TMP DP  RH WIND       PRES   REMARKS
ST. JOSEPH     CLEAR     81  67  62 NW3       29.89S
MOSBY            N/A     79  64  61 CALM      29.88S
HARRISONVILLE  PTCLDY    82  66  57 NW3       29.93R
WHITEMAN AFB   NOT AVBL
CLINTON        CLEAR     82  68  61 W3        29.90S
SEDALIA        MOCLDY    80  67  64 MISG      29.90R
WARSAW         FAIR      79  68  69 CALM      29.91S
CHILLICOTHE      N/A     78  69  73 CALM      29.89R
KIRKSVILLE     CLEAR     74  67  78 W5        29.88S

$$

MOZ041-047>049-056>058-063>065-088>090-097-300200-
...EASTERN AND SOUTHERN MISSOURI...

CITY           SKY/WX    TMP DP  RH WIND       PRES   REMARKS
ST. LOUIS INTL MOCLDY    77  64  64 CALM      29.86R
SPIRIT OF STL  PTCLDY    74  72  93 CALM      29.84S
COLUMBIA       CLEAR     79  67  66 W5        29.88S
JEFFERSON CITY CLEAR     81  66  60 CALM      29.86S
ROLLA          CLEAR     76  67  73 W5        29.89R
OSAGE BEACH    PTCLDY    79  68  69 SW3       29.90S
SPRINGFIELD    CLEAR     80  64  58 NW3       29.93R
BRANSON        CLEAR     77  64  65 CALM      29.94S
NEVADA         CLEAR     81  66  61 CALM      29.93S
JOPLIN         CLEAR     81  66  60 N6        29.93S
WEST PLAINS    CLEAR     78  65  63 NW3       29.92S
MALDEN         CLEAR     86  64  48 NW5       29.85R

$$

IAZ060-094-KSZ022-034>040-054-083-096-NEZ052-066-093-300200-
...KANSAS...SOUTHEAST NEBRASKA AND IOWA...

CITY           SKY/WX    TMP DP  RH WIND       PRES   REMARKS
TOPEKA         CLEAR     84  65  52 CALM      29.90F
MANHATTAN      CLEAR     84  63  49 N3        29.91S
EMPORIA        CLEAR     82  65  56 S3        29.93S
CHANUTE        CLEAR     83  63  50 N3        29.92S
WICHITA        MOCLDY    86  57  37 E7        29.93S
OMAHA          CLOUDY    81  65  58 CALM      29.90S
LINCOLN        CLEAR     81  63  54 N8        29.93S
FALLS CITY     CLEAR     81  65  58 CALM      29.90R
LAMONI         CLEAR     77  67  71 NW3       29.89S
DES MOINES     CLOUDY    78  63  59 W7        29.86S

$$



USA.gov is the U.S. government's official web portal to all federal, state and local government web resources and services.